El Centro, CA

7:28 AM PDT on September 22, 2017 (GMT -0700)
El Centro Naval Air Facility

Weather History for KNJK - September, 2013

Change the Weather History Date:

Friday, September 20, 2013

  Actual Average Record
Temperature  
Mean Temperature 86 °F -  
Max Temperature 102 °F 98 °F 109 °F (2010)
Min Temperature 70 °F 72 °F 64 °F (2004)
Cooling Degree Days 21    
Growing Degree Days 36 (Base 50)    
Moisture  
Dew Point 46 °F    
Average Humidity 26    
Maximum Humidity 46    
Minimum Humidity 12    
Precipitation  
Precipitation 0.00 in - - ()
Sea Level Pressure  
Sea Level Pressure 29.72 in    
Wind  
Wind Speed 6 mph (SW)    
Max Wind Speed 18 mph    
Max Gust Speed -    
Visibility 10 miles    
Events      
Averages and records for this station are not official NWS values.
T = Trace of Precipitation, MM = Missing Value Source: NWS Daily Summary

Daily Weather History Graph

Daily Weather History Graph

Search for Another Location

Airport or City:

Trip Planner

Search our weather history database for the weather conditions in past years. The results will help you decide how hot, cold, wet, or windy it might be!

Date:

Astronomy

Sep. 20, 2013 Rise Set
Actual Time 6:29 AM PDT 6:41 PM PDT
Civil Twilight 6:05 AM PDT 7:06 PM PDT
Nautical Twilight 5:36 AM PDT 7:35 PM PDT
Astronomical Twilight 5:07 AM PDT 8:04 PM PDT
Moon 7:26 PM PDT (9/20) 7:42 AM PDT (9/20)
Length of Visible Light 13h 01m
Length of Day
12h 11m
Full, 98% of the Moon is Illuminated
Sep 20
Full
Sep 26
Last Quarter
Oct 4
New
Oct 11
First Quarter
Oct 18
Full

Hourly Weather History & Observations

Time (PDT) Temp. Heat Index Dew Point Humidity Pressure Visibility Wind Dir Wind Speed Gust Speed Precip Events Conditions
12:56 AM 78.1 °F - 46.9 °F 33% 29.71 in 10.0 mi SW 6.9 mph - N/A   Clear
1:56 AM 73.9 °F - 45.0 °F 35% 29.71 in 10.0 mi NW 6.9 mph - N/A   Clear
2:56 AM 75.0 °F - 39.9 °F 28% 29.70 in 10.0 mi WNW 9.2 mph - N/A   Clear
3:56 AM 72.0 °F - 39.0 °F 30% 29.70 in 10.0 mi WNW 8.1 mph - N/A   Clear
4:56 AM 71.1 °F - 42.1 °F 35% 29.72 in 10.0 mi WSW 4.6 mph - N/A   Clear
5:56 AM 70.0 °F - 43.0 °F 38% 29.73 in 10.0 mi WSW 4.6 mph - N/A   Clear
6:56 AM 70.0 °F - 48.0 °F 46% 29.74 in 10.0 mi SW 4.6 mph - N/A   Clear
7:56 AM 77.0 °F - 43.0 °F 30% 29.76 in 10.0 mi Calm Calm - N/A   Clear
8:56 AM 84.9 °F - 46.9 °F 27% 29.77 in 10.0 mi Calm Calm - N/A   Clear
9:56 AM 89.1 °F 86.9 °F 54.0 °F 30% 29.78 in 10.0 mi East 5.8 mph - N/A   Clear
10:56 AM 93.9 °F - 46.0 °F 19% 29.78 in 10.0 mi Calm Calm - N/A   Clear
11:56 AM 96.1 °F - 43.0 °F 16% 29.76 in 10.0 mi SE 4.6 mph - N/A   Clear
12:56 PM 98.1 °F - 44.1 °F 16% 29.75 in 10.0 mi Variable 5.8 mph - N/A   Clear
1:56 PM 100.0 °F - 43.0 °F 14% 29.72 in 10.0 mi ESE 6.9 mph - N/A   Clear
2:56 PM 102.0 °F - 43.0 °F 13% 29.70 in 10.0 mi East 10.4 mph - N/A   Clear
3:56 PM 102.0 °F - 41.0 °F 12% 29.68 in 10.0 mi SSE 3.5 mph - N/A   Clear
4:56 PM 102.0 °F - 41.0 °F 12% 29.67 in 10.0 mi Calm Calm - N/A   Clear
5:56 PM 99.0 °F - 45.0 °F 16% 29.67 in 10.0 mi WSW 15.0 mph - N/A   Clear
6:56 PM 93.0 °F - 48.9 °F 22% 29.67 in 10.0 mi WSW 18.4 mph - N/A   Clear
7:56 PM 90.0 °F - 51.1 °F 26% 29.69 in 10.0 mi WSW 13.8 mph - N/A   Clear
8:56 PM 87.1 °F - 50.0 °F 28% 29.71 in 10.0 mi WSW 12.7 mph - N/A   Clear
9:56 PM 84.0 °F - 50.0 °F 31% 29.73 in 10.0 mi WSW 6.9 mph - N/A   Clear
10:56 PM 80.1 °F - 52.0 °F 38% 29.75 in 10.0 mi East 4.6 mph - N/A   Clear
11:56 PM 79.0 °F - 50.0 °F 36% 29.75 in 10.0 mi ENE 6.9 mph - N/A   Clear